Colby, KS

2:57 AM CST on November 18, 2019 (GMT -0600)
Shaltz

Weather History for KCBK - September, 2019

Change the Weather History Date:

Tuesday, September 3, 2019

  Actual Average (WUND) Record (WUND)
Temperature  
Mean Temperature 74 °F -  
Max Temperature 84 °F - - (-1)
Min Temperature 64 °F - - (-1)
Cooling Degree Days 9    
Growing Degree Days 24 (Base 50)    
Moisture  
Dew Point 55 °F    
Average Humidity 53    
Maximum Humidity 83    
Minimum Humidity 34    
Precipitation  
Precipitation 0.00 in - - ()
Sea Level Pressure  
Sea Level Pressure 30.07 in    
Wind  
Wind Speed 12 mph (NNE)    
Max Wind Speed 21 mph    
Max Gust Speed 28 mph    
Visibility 10 miles    
Events      
Averages and records for this station are not official NWS values.
T = Trace of Precipitation, MM = Missing Value Source: NWS Daily Summary

Daily Weather History Graph

Daily Weather History Graph

Search for Another Location

Airport or City:

Astronomy

Sep. 03, 2019 Rise Set
Actual Time 7:14 AM CDT 8:12 PM CDT
Civil Twilight 6:46 AM CDT 8:39 PM CDT
Nautical Twilight 6:14 AM CDT 9:12 PM CDT
Astronomical Twilight 5:40 AM CDT 9:45 PM CDT
Moon 12:07 PM CDT (9/3) 11:11 PM CDT (9/3)
Length of Visible Light 13h 52m
Length of Day
12h 57m
Waxing Crescent, 25% of the Moon is Illuminated
Sep 3
Waxing Crescent
Sep 5
First Quarter
Sep 13
Full
Sep 21
Last Quarter
Sep 28
New

Hourly Weather History & Observations

Time (CDT) Temp. Heat Index Dew Point Humidity Pressure Visibility Wind Dir Wind Speed Gust Speed Precip Events Conditions
12:15 AM 77.0 °F - 50.0 °F 39% 30.00 in 10.0 mi SSW 11.5 mph 18.4 mph N/A   Clear
12:35 AM 75.2 °F - 50.0 °F 41% 29.99 in 10.0 mi SSW 13.8 mph - N/A   Clear
12:55 AM 73.4 °F - 50.0 °F 44% 30.00 in 10.0 mi SW 10.4 mph 17.3 mph N/A   Clear
1:15 AM 71.6 °F - 51.8 °F 50% 30.00 in 10.0 mi SSW 10.4 mph - N/A   Clear
1:35 AM 73.4 °F - 51.8 °F 47% 29.99 in 10.0 mi SSW 13.8 mph 18.4 mph N/A   Clear
1:55 AM 73.4 °F - 51.8 °F 47% 29.99 in 10.0 mi SW 12.7 mph 19.6 mph N/A   Clear
2:15 AM 71.6 °F - 53.6 °F 53% 29.99 in 10.0 mi SW 13.8 mph - N/A   Clear
2:35 AM 71.6 °F - 53.6 °F 53% 29.99 in 10.0 mi SSW 13.8 mph - N/A   Clear
2:55 AM 71.6 °F - 53.6 °F 53% 29.99 in 10.0 mi SSW 13.8 mph - N/A   Clear
3:15 AM 71.6 °F - 53.6 °F 53% 29.99 in 10.0 mi SSW 11.5 mph - N/A   Clear
3:35 AM 71.6 °F - 53.6 °F 53% 29.99 in 10.0 mi SW 13.8 mph 19.6 mph N/A   Clear
3:55 AM 71.6 °F - 53.6 °F 53% 29.98 in 10.0 mi SSW 12.7 mph - N/A   Clear
4:15 AM 71.6 °F - 55.4 °F 57% 29.98 in 10.0 mi SSW 12.7 mph - N/A   Clear
4:35 AM 71.6 °F - 55.4 °F 57% 29.98 in 10.0 mi SW 11.5 mph - N/A   Clear
4:55 AM 69.8 °F - 55.4 °F 60% 29.98 in 10.0 mi SSW 11.5 mph - N/A   Clear
5:15 AM 69.8 °F - 55.4 °F 60% 29.98 in 10.0 mi SSW 12.7 mph - N/A   Clear
5:35 AM 69.8 °F - 55.4 °F 60% 29.98 in 10.0 mi SW 10.4 mph - N/A   Clear
5:55 AM 68.0 °F - 55.4 °F 64% 29.98 in 10.0 mi SW 10.4 mph - N/A   Clear
6:15 AM 68.0 °F - 53.6 °F 60% 29.98 in 10.0 mi SW 9.2 mph - N/A   Clear
6:35 AM 66.2 °F - 53.6 °F 64% 29.98 in 10.0 mi SSW 11.5 mph - N/A   Clear
7:15 AM 64.4 °F - 53.6 °F 68% 29.98 in 10.0 mi SW 9.2 mph - N/A   Clear
7:35 AM 64.4 °F - 53.6 °F 68% 29.98 in 10.0 mi SSW 9.2 mph - N/A   Clear
7:55 AM 66.2 °F - 53.6 °F 64% 29.98 in 10.0 mi SW 9.2 mph - N/A   Clear
8:15 AM 68.0 °F - 55.4 °F 64% 29.99 in 10.0 mi SW 9.2 mph - N/A   Clear
8:35 AM 68.0 °F - 55.4 °F 64% 29.99 in 10.0 mi SW 8.1 mph - N/A   Clear
8:55 AM 69.8 °F - 55.4 °F 60% 30.03 in 10.0 mi WNW 16.1 mph 21.9 mph N/A   Clear
9:15 AM 69.8 °F - 53.6 °F 56% 30.02 in 10.0 mi WSW 6.9 mph 18.4 mph N/A   Clear
9:35 AM 71.6 °F - 53.6 °F 53% 30.02 in 10.0 mi WSW 6.9 mph - N/A   Clear
9:55 AM 73.4 °F - 53.6 °F 50% 30.02 in 10.0 mi WSW 6.9 mph - N/A   Clear
10:15 AM 77.0 °F - 53.6 °F 44% 30.03 in 10.0 mi WNW 6.9 mph - N/A   Clear
10:35 AM 78.8 °F - 51.8 °F 39% 30.04 in 10.0 mi NW 10.4 mph - N/A   Clear
10:55 AM 78.8 °F - 51.8 °F 39% 30.04 in 10.0 mi NNW 11.5 mph - N/A   Clear
11:15 AM 80.6 °F - 51.8 °F 37% 30.05 in 10.0 mi North 9.2 mph - N/A   Clear
11:35 AM 80.6 °F - 50.0 °F 34% 30.06 in 10.0 mi NNW 11.5 mph - N/A   Clear
11:55 AM 82.4 °F - 51.8 °F 35% 30.06 in 10.0 mi North 9.2 mph - N/A   Clear
12:15 PM 82.4 °F - 51.8 °F 35% 30.07 in 10.0 mi North 11.5 mph - N/A   Clear
12:35 PM 82.4 °F - 51.8 °F 35% 30.07 in 10.0 mi NE 12.7 mph 17.3 mph N/A   Clear
12:55 PM 82.4 °F - 51.8 °F 35% 30.07 in 10.0 mi NNE 13.8 mph - N/A   Clear
1:15 PM 82.4 °F 81.4 °F 53.6 °F 37% 30.08 in 10.0 mi NNE 13.8 mph 20.7 mph N/A   Clear
1:35 PM 84.2 °F 83.0 °F 55.4 °F 37% 30.08 in 10.0 mi NNE 15.0 mph 20.7 mph N/A   Clear
1:55 PM 84.2 °F 83.0 °F 55.4 °F 37% 30.08 in 10.0 mi NE 13.8 mph 24.2 mph N/A   Clear
2:15 PM 84.2 °F 83.8 °F 59.0 °F 42% 30.09 in 10.0 mi NE 15.0 mph 20.7 mph N/A   Clear
2:35 PM 84.2 °F 85.0 °F 62.6 °F 48% 30.09 in 10.0 mi NE 15.0 mph 23.0 mph N/A   Scattered Clouds
2:55 PM 82.4 °F 83.9 °F 64.4 °F 54% 30.09 in 10.0 mi NE 18.4 mph 27.6 mph N/A   Scattered Clouds
3:15 PM 82.4 °F 83.4 °F 62.6 °F 51% 30.09 in 10.0 mi NE 19.6 mph 23.0 mph N/A   Mostly Cloudy
3:35 PM 84.2 °F 84.4 °F 60.8 °F 45% 30.10 in 10.0 mi NE 20.7 mph 25.3 mph N/A   Scattered Clouds
3:55 PM 82.4 °F 82.5 °F 59.0 °F 45% 30.10 in 10.0 mi NE 19.6 mph 25.3 mph N/A   Scattered Clouds
4:15 PM 82.4 °F 82.0 °F 57.2 °F 42% 30.10 in 10.0 mi NE 16.1 mph 23.0 mph N/A   Clear
4:35 PM 82.4 °F 81.7 °F 55.4 °F 39% 30.11 in 10.0 mi NE 18.4 mph 24.2 mph N/A   Clear
4:55 PM 82.4 °F 81.4 °F 53.6 °F 37% 30.11 in 10.0 mi NE 13.8 mph 24.2 mph N/A   Clear
5:15 PM 82.4 °F 81.7 °F 55.4 °F 39% 30.11 in 10.0 mi NE 18.4 mph 24.2 mph N/A   Clear
5:35 PM 82.4 °F 81.4 °F 53.6 °F 37% 30.11 in 10.0 mi NE 18.4 mph 24.2 mph N/A   Clear
5:55 PM 80.6 °F 80.3 °F 53.6 °F 39% 30.12 in 10.0 mi NE 17.3 mph 23.0 mph N/A   Clear
6:15 PM 80.6 °F 80.3 °F 53.6 °F 39% 30.12 in 10.0 mi NE 17.3 mph - N/A   Clear
6:35 PM 80.6 °F 80.5 °F 55.4 °F 42% 30.13 in 10.0 mi NE 15.0 mph 21.9 mph N/A   Clear
6:55 PM 78.8 °F - 55.4 °F 44% 30.13 in 10.0 mi NE 15.0 mph - N/A   Clear
7:35 PM 75.2 °F - 55.4 °F 50% 30.14 in 10.0 mi NE 12.7 mph - N/A   Clear
7:55 PM 73.4 °F - 55.4 °F 53% 30.14 in 10.0 mi NE 11.5 mph - N/A   Clear
8:15 PM 71.6 °F - 57.2 °F 60% 30.15 in 10.0 mi NE 8.1 mph - N/A   Clear
8:35 PM 69.8 °F - 57.2 °F 64% 30.16 in 10.0 mi NE 8.1 mph - N/A   Clear
8:55 PM 69.8 °F - 55.4 °F 60% 30.17 in 10.0 mi ENE 9.2 mph - N/A   Clear
9:15 PM 68.0 °F - 55.4 °F 64% 30.17 in 10.0 mi NE 8.1 mph - N/A   Clear
9:35 PM 68.0 °F - 55.4 °F 64% 30.18 in 10.0 mi NE 5.8 mph - N/A   Clear
9:55 PM 64.4 °F - 59.0 °F 83% 30.19 in 10.0 mi NE 5.8 mph - N/A   Clear
10:15 PM 66.2 °F - 59.0 °F 78% 30.19 in 10.0 mi NE 8.1 mph - N/A   Mostly Cloudy
10:35 PM 64.4 °F - 59.0 °F 83% 30.20 in 10.0 mi NE 5.8 mph - N/A   Scattered Clouds
10:55 PM 64.4 °F - 59.0 °F 83% 30.20 in 10.0 mi NE 6.9 mph - N/A   Clear
11:15 PM 64.4 °F - 59.0 °F 83% 30.20 in 10.0 mi NE 8.1 mph - N/A   Clear
11:35 PM 64.4 °F - 59.0 °F 83% 30.21 in 10.0 mi NNE 5.8 mph - N/A   Scattered Clouds
11:55 PM 64.4 °F - 59.0 °F 83% 30.21 in 10.0 mi NE 6.9 mph - N/A   Clear